"read_dt","SO2 (ppb)","flags","PMT voltage (V)","lamp voltage (V)","lamp intensity (Hz)","internal temp (C)","react chamber temp (C)","sample flow (l/min)","pres (mmHg)","SO2 bkg (ppb)","SO2 coefficient"
2016-04-01 00:00:00,1703E-3,5C000400,-0724,0834,12273,021.2,045.3,0.267,759.5,01.16,0.508
2016-04-01 00:01:00,1682E-3,5C000400,-0724,0833,12159,021.3,045.3,0.267,759.5,01.16,0.508
2016-04-01 00:02:00,1725E-3,5C000400,-0724,0833,12330,021.2,045.3,0.267,759.5,01.16,0.508
2016-04-01 00:03:00,1678E-3,5C000400,-0724,0833,12247,021.3,045.3,0.267,759.5,01.16,0.508
2016-04-01 00:04:00,1845E-3,5C000400,-0724,0834,12191,021.3,045.2,0.267,759.4,01.16,0.508
2016-04-01 00:05:00,1760E-3,5C000400,-0724,0834,12071,021.3,045.2,0.267,759.5,01.16,0.508
2016-04-01 00:06:00,1672E-3,5C000400,-0724,0833,12051,021.3,045.2,0.267,759.4,01.16,0.508
2016-04-01 00:07:00,1627E-3,5C000400,-0724,0834,11077,021.3,045.2,0.267,759.5,01.16,0.508
2016-04-01 00:08:00,1835E-3,5C000400,-0724,0835,12203,021.3,045.3,0.267,759.4,01.16,0.508
2016-04-01 00:09:00,1803E-3,5C000400,-0724,0833,12124,021.3,045.3,0.267,759.5,01.16,0.508
2016-04-01 00:10:00,1762E-3,5C000400,-0724,0833,12127,021.3,045.3,0.267,759.4,01.16,0.508
2016-04-01 00:11:00,1820E-3,5C000400,-0724,0833,12094,021.3,045.3,0.267,759.4,01.16,0.508
2016-04-01 00:12:00,1639E-3,5C000400,-0724,0833,12102,021.3,045.3,0.267,759.4,01.16,0.508
2016-04-01 00:13:00,1705E-3,5C000400,-0724,0834,12168,021.3,045.3,0.267,759.4,01.16,0.508
2016-04-01 00:14:00,1821E-3,5C000400,-0724,0833,11998,021.3,045.3,0.267,759.4,01.16,0.508
2016-04-01 00:15:00,1856E-3,5C000400,-0724,0834,12208,021.3,045.3,0.267,759.4,01.16,0.508
2016-04-01 00:16:00,1628E-3,5C000400,-0724,0833,12107,021.3,045.3,0.267,759.3,01.16,0.508
2016-04-01 00:17:00,1642E-3,5C000400,-0724,0834,12160,021.3,045.2,0.267,759.3,01.16,0.508
2016-04-01 00:18:00,1787E-3,5C000400,-0724,0834,12158,021.3,045.3,0.267,759.3,01.16,0.508
2016-04-01 00:19:00,1707E-3,5C000400,-0724,0833,12102,021.3,045.3,0.267,759.4,01.16,0.508
2016-04-01 00:20:00,1746E-3,5C000400,-0724,0834,12275,021.3,045.3,0.267,759.3,01.16,0.508
2016-04-01 00:21:00,1904E-3,5C000400,-0724,0834,12267,021.3,045.2,0.267,759.3,01.16,0.508
2016-04-01 00:22:00,1794E-3,5C000400,-0724,0834,12288,021.3,045.3,0.267,759.3,01.16,0.508
2016-04-01 00:23:00,1708E-3,5C000400,-0724,0834,12080,021.3,045.3,0.266,759.3,01.16,0.508
2016-04-01 00:24:00,1671E-3,5C000400,-0724,0834,12177,021.3,045.3,0.267,759.3,01.16,0.508
2016-04-01 00:25:00,1714E-3,5C000400,-0724,0834,12134,021.4,045.3,0.267,759.3,01.16,0.508
2016-04-01 00:26:00,1710E-3,5C000400,-0724,0833,12107,021.4,045.3,0.267,759.3,01.16,0.508
2016-04-01 00:27:00,1686E-3,5C000400,-0724,0834,12256,021.4,045.2,0.267,759.3,01.16,0.508
2016-04-01 00:28:00,1698E-3,5C000400,-0724,0834,12152,021.4,045.2,0.267,759.3,01.16,0.508
2016-04-01 00:29:00,1672E-3,5C000400,-0724,0833,12087,021.4,045.3,0.267,759.3,01.16,0.508
2016-04-01 00:30:00,1830E-3,5C000400,-0724,0833,12173,021.4,045.3,0.267,759.3,01.16,0.508
2016-04-01 00:31:00,1763E-3,5C000400,-0724,0834,12202,021.4,045.3,0.267,759.3,01.16,0.508
2016-04-01 00:32:00,1793E-3,5C000400,-0724,0833,12132,021.4,045.3,0.267,759.3,01.16,0.508
2016-04-01 00:33:00,1711E-3,5C000400,-0724,0833,12186,021.4,045.3,0.267,759.3,01.16,0.508
2016-04-01 00:34:00,1690E-3,5C000400,-0724,0833,11977,021.4,045.3,0.267,759.3,01.16,0.508
2016-04-01 00:35:00,1756E-3,5C000400,-0724,0834,12060,021.4,045.2,0.266,759.3,01.16,0.508
2016-04-01 00:36:00,1732E-3,5C000400,-0724,0833,12005,021.4,045.3,0.266,759.3,01.16,0.508
2016-04-01 00:37:00,1755E-3,5C000400,-0724,0834,12132,021.4,045.3,0.266,759.3,01.16,0.508
2016-04-01 00:38:00,1776E-3,5C000400,-0724,0833,12084,021.4,045.3,0.266,759.3,01.16,0.508
2016-04-01 00:39:00,1779E-3,5C000400,-0724,0834,12270,021.5,045.3,0.266,759.3,01.16,0.508
2016-04-01 00:40:00,1682E-3,5C000400,-0724,0833,12141,021.4,045.3,0.267,759.3,01.16,0.508
2016-04-01 00:41:00,1654E-3,5C000400,-0724,0834,12102,021.5,045.3,0.267,759.3,01.16,0.508
2016-04-01 00:42:00,1676E-3,5C000400,-0724,0833,12063,021.4,045.3,0.267,759.3,01.16,0.508
2016-04-01 00:43:00,1837E-3,5C000400,-0724,0833,12245,021.4,045.3,0.267,759.3,01.16,0.508
2016-04-01 00:44:00,1745E-3,5C000400,-0724,0833,12085,021.5,045.3,0.267,759.3,01.16,0.508
2016-04-01 00:45:00,1648E-3,5C000400,-0724,0833,12234,021.4,045.3,0.267,759.3,01.16,0.508
2016-04-01 00:46:00,1712E-3,5C000400,-0724,0833,12221,021.4,045.3,0.266,759.3,01.16,0.508
2016-04-01 00:47:00,1780E-3,5C000400,-0724,0833,12225,021.5,045.2,0.267,759.3,01.16,0.508
2016-04-01 00:48:00,1877E-3,5C000400,-0724,0833,12151,021.5,045.3,0.267,759.3,01.16,0.508
2016-04-01 00:49:00,1756E-3,5C000400,-0724,0833,12189,021.5,045.3,0.267,759.3,01.16,0.508
2016-04-01 00:50:00,1758E-3,5C000400,-0724,0833,12257,021.5,045.3,0.266,759.3,01.16,0.508
2016-04-01 00:51:00,1708E-3,5C000400,-0724,0833,12116,021.5,045.3,0.267,759.3,01.16,0.508
2016-04-01 00:52:00,1746E-3,5C000400,-0724,0833,12185,021.5,045.3,0.267,759.3,01.16,0.508
2016-04-01 00:53:00,1764E-3,5C000400,-0724,0833,12128,021.5,045.2,0.267,759.3,01.16,0.508
2016-04-01 00:54:00,1729E-3,5C000400,-0724,0833,12283,021.5,045.3,0.266,759.3,01.16,0.508
2016-04-01 00:55:00,1796E-3,5C000400,-0724,0833,12169,021.5,045.3,0.267,759.3,01.16,0.508
2016-04-01 00:56:00,1777E-3,5C000400,-0724,0833,12046,021.5,045.3,0.267,759.3,01.16,0.508
2016-04-01 00:57:00,1674E-3,5C000400,-0724,0833,12217,021.5,045.2,0.267,759.4,01.16,0.508
2016-04-01 00:58:00,1877E-3,5C000400,-0724,0833,12235,021.5,045.3,0.266,759.4,01.16,0.508
2016-04-01 00:59:00,1730E-3,5C000400,-0724,0834,12275,021.5,045.3,0.266,759.4,01.16,0.508
2016-04-01 01:00:00,1699E-3,5C000400,-0724,0833,12240,021.5,045.3,0.267,759.4,01.16,0.508
2016-04-01 01:01:00,1737E-3,5C000400,-0724,0833,12130,021.5,045.3,0.267,759.4,01.16,0.508
2016-04-01 01:02:00,1761E-3,5C000400,-0724,0835,12136,021.5,045.3,0.267,759.4,01.16,0.508
2016-04-01 01:03:00,1858E-3,5C000400,-0724,0834,12242,021.6,045.2,0.267,759.4,01.16,0.508
2016-04-01 01:04:00,1837E-3,5C000400,-0724,0833,12050,021.6,045.3,0.267,759.4,01.16,0.508
2016-04-01 01:05:00,1797E-3,5C000400,-0724,0835,12096,021.6,045.3,0.267,759.4,01.16,0.508
2016-04-01 01:06:00,1688E-3,5C000400,-0724,0833,12131,021.6,045.3,0.267,759.4,01.16,0.508
2016-04-01 01:07:00,1676E-3,5C000400,-0724,0833,12107,021.6,045.3,0.267,759.4,01.16,0.508
2016-04-01 01:08:00,1729E-3,5C000400,-0724,0833,12308,021.6,045.3,0.267,759.4,01.16,0.508
2016-04-01 01:09:00,1736E-3,5C000400,-0724,0833,12172,021.6,045.2,0.267,759.4,01.16,0.508
2016-04-01 01:10:00,1707E-3,5C000400,-0724,0833,12166,021.6,045.3,0.266,759.4,01.16,0.508
2016-04-01 01:11:00,1630E-3,5C000400,-0724,0833,12274,021.6,045.3,0.266,759.4,01.16,0.508
2016-04-01 01:12:00,1715E-3,5C000400,-0724,0833,12227,021.6,045.3,0.266,759.5,01.16,0.508
2016-04-01 01:13:00,1727E-3,5C000400,-0724,0834,12181,021.6,045.3,0.266,759.5,01.16,0.508
2016-04-01 01:14:00,1770E-3,5C000400,-0724,0833,12110,021.6,045.3,0.266,759.5,01.16,0.508
2016-04-01 01:15:00,1791E-3,5C000400,-0724,0833,12162,021.6,045.3,0.266,759.5,01.16,0.508
2016-04-01 01:16:00,1722E-3,5C000400,-0724,0834,12199,021.6,045.3,0.267,759.4,01.16,0.508
2016-04-01 01:17:00,1594E-3,5C000400,-0724,0834,12191,021.6,045.2,0.267,759.5,01.16,0.508
2016-04-01 01:18:00,1575E-3,5C000400,-0724,0834,12233,021.7,045.3,0.267,759.5,01.16,0.508
2016-04-01 01:19:00,1672E-3,5C000400,-0724,0834,12167,021.7,045.3,0.266,759.5,01.16,0.508
2016-04-01 01:20:00,1733E-3,5C000400,-0724,0834,12179,021.6,045.3,0.266,759.5,01.16,0.508
2016-04-01 01:21:00,1720E-3,5C000400,-0724,0834,12211,021.7,045.3,0.266,759.5,01.16,0.508
2016-04-01 01:22:00,1890E-3,5C000400,-0724,0834,12052,021.7,045.3,0.266,759.5,01.16,0.508
2016-04-01 01:23:00,1830E-3,5C000400,-0724,0834,12209,021.7,045.3,0.266,759.5,01.16,0.508
2016-04-01 01:24:00,1737E-3,5C000400,-0724,0834,12133,021.7,045.3,0.266,759.5,01.16,0.508
2016-04-01 01:25:00,1806E-3,5C000400,-0724,0834,12186,021.7,045.3,0.266,759.5,01.16,0.508
2016-04-01 01:26:00,1825E-3,5C000400,-0724,0834,12089,021.7,045.3,0.266,759.5,01.16,0.508
2016-04-01 01:27:00,1747E-3,5C000400,-0724,0834,12233,021.7,045.3,0.266,759.5,01.16,0.508
2016-04-01 01:28:00,1828E-3,5C000400,-0724,0833,12240,021.7,045.3,0.266,759.5,01.16,0.508
2016-04-01 01:29:00,1667E-3,5C000400,-0724,0834,12206,021.8,045.3,0.266,759.5,01.16,0.508
2016-04-01 01:30:00,1775E-3,5C000400,-0724,0834,12214,021.7,045.3,0.266,759.5,01.16,0.508
2016-04-01 01:31:00,1678E-3,5C000400,-0724,0833,12217,021.7,045.3,0.266,759.5,01.16,0.508
2016-04-01 01:32:00,1675E-3,5C000400,-0724,0833,12198,021.7,045.3,0.266,759.5,01.16,0.508
2016-04-01 01:33:00,1789E-3,5C000400,-0724,0833,12160,021.8,045.3,0.266,759.5,01.16,0.508
2016-04-01 01:34:00,1738E-3,5C000400,-0724,0833,12268,021.8,045.3,0.266,759.5,01.16,0.508
2016-04-01 01:35:00,1805E-3,5C000400,-0724,0833,12162,021.8,045.3,0.266,759.6,01.16,0.508
2016-04-01 01:36:00,1740E-3,5C000400,-0724,0833,12212,021.8,045.3,0.266,759.6,01.16,0.508
2016-04-01 01:37:00,1740E-3,5C000400,-0724,0833,12170,021.8,045.3,0.266,759.5,01.16,0.508
2016-04-01 01:38:00,1777E-3,5C000400,-0724,0833,12218,021.8,045.3,0.266,759.5,01.16,0.508
2016-04-01 01:39:00,1746E-3,5C000400,-0724,0834,12240,021.8,045.3,0.266,759.5,01.16,0.508
2016-04-01 01:40:00,1788E-3,5C000400,-0724,0833,12153,021.8,045.3,0.266,759.5,01.16,0.508
2016-04-01 01:41:00,1635E-3,5C000400,-0724,0834,12127,021.8,045.3,0.266,759.5,01.16,0.508
2016-04-01 01:42:00,1700E-3,5C000400,-0724,0833,12190,021.8,045.3,0.266,759.5,01.16,0.508
2016-04-01 01:43:00,1766E-3,5C000400,-0724,0833,11984,021.8,045.3,0.266,759.5,01.16,0.508
2016-04-01 01:44:00,1690E-3,5C000400,-0724,0834,12331,021.9,045.3,0.266,759.5,01.16,0.508
2016-04-01 01:45:00,1760E-3,5C000400,-0724,0833,12043,021.8,045.3,0.266,759.5,01.16,0.508
2016-04-01 01:46:00,1844E-3,5C000400,-0724,0834,12128,021.9,045.3,0.266,759.5,01.16,0.508
2016-04-01 01:47:00,1788E-3,5C000400,-0724,0834,12053,021.9,045.3,0.266,759.5,01.16,0.508
2016-04-01 01:48:00,1808E-3,5C000400,-0724,0834,12039,021.9,045.3,0.266,759.5,01.16,0.508
2016-04-01 01:49:00,1711E-3,5C000400,-0724,0835,12060,021.9,045.3,0.266,759.5,01.16,0.508
2016-04-01 01:50:00,1719E-3,5C000400,-0724,0833,12233,021.9,045.3,0.266,759.5,01.16,0.508
2016-04-01 01:51:00,1868E-3,5C000400,-0724,0833,12127,021.9,045.3,0.266,759.5,01.16,0.508
2016-04-01 01:52:00,1814E-3,5C000400,-0724,0833,12311,021.9,045.3,0.266,759.5,01.16,0.508
2016-04-01 01:53:00,1645E-3,5C000400,-0724,0834,12213,021.9,045.3,0.266,759.5,01.16,0.508
2016-04-01 01:54:00,1784E-3,5C000400,-0724,0834,12216,021.9,045.3,0.266,759.5,01.16,0.508
2016-04-01 01:55:00,1668E-3,5C000400,-0724,0833,12255,021.9,045.3,0.266,759.5,01.16,0.508
2016-04-01 01:56:00,1713E-3,5C000400,-0724,0833,12040,021.9,045.3,0.266,759.4,01.16,0.508
2016-04-01 01:57:00,1842E-3,5C000400,-0724,0834,12118,022.0,045.3,0.266,759.4,01.16,0.508
2016-04-01 01:58:00,1804E-3,5C000400,-0724,0833,12273,022.0,045.3,0.266,759.4,01.16,0.508
2016-04-01 01:59:00,1882E-3,5C000400,-0724,0834,12140,022.0,045.3,0.266,759.4,01.16,0.508
2016-04-01 02:00:00,1736E-3,5C000400,-0724,0834,12190,022.0,045.3,0.266,759.4,01.16,0.508
2016-04-01 02:01:00,1893E-3,5C000400,-0724,0834,12243,022.0,045.3,0.266,759.3,01.16,0.508
2016-04-01 02:02:00,1662E-3,5C000400,-0724,0834,12184,022.0,045.3,0.266,759.3,01.16,0.508
2016-04-01 02:03:00,1845E-3,5C000400,-0724,0834,12055,022.0,045.3,0.266,759.3,01.16,0.508
2016-04-01 02:04:00,1757E-3,5C000400,-0724,0834,12327,022.0,045.3,0.266,759.3,01.16,0.508
2016-04-01 02:05:00,1791E-3,5C000400,-0724,0833,12285,022.0,045.3,0.266,759.3,01.16,0.508
2016-04-01 02:06:00,1743E-3,5C000400,-0724,0834,12274,022.0,045.3,0.266,759.3,01.16,0.508
2016-04-01 02:07:00,1818E-3,5C000400,-0724,0833,12331,022.0,045.3,0.266,759.3,01.16,0.508
2016-04-01 02:08:00,1784E-3,5C000400,-0724,0833,12187,022.1,045.3,0.266,759.3,01.16,0.508
2016-04-01 02:09:00,1694E-3,5C000400,-0724,0833,12076,022.1,045.3,0.266,759.3,01.16,0.508
2016-04-01 02:10:00,1858E-3,5C000400,-0724,0833,12353,022.1,045.3,0.266,759.3,01.16,0.508
2016-04-01 02:11:00,1668E-3,5C000400,-0724,0833,12248,022.1,045.3,0.266,759.3,01.16,0.508
2016-04-01 02:12:00,1792E-3,5C000400,-0724,0834,12153,022.1,045.3,0.266,759.2,01.16,0.508
2016-04-01 02:13:00,1726E-3,5C000400,-0724,0834,12218,022.1,045.3,0.265,759.2,01.16,0.508
2016-04-01 02:14:00,1764E-3,5C000400,-0724,0834,12005,022.1,045.3,0.265,759.2,01.16,0.508
2016-04-01 02:15:00,1748E-3,5C000400,-0724,0833,12312,022.1,045.3,0.265,759.2,01.16,0.508
2016-04-01 02:16:00,1791E-3,5C000400,-0724,0834,12134,022.1,045.3,0.266,759.1,01.16,0.508
2016-04-01 02:17:00,1779E-3,5C000400,-0724,0834,12195,022.1,045.3,0.266,759.2,01.16,0.508
2016-04-01 02:18:00,1706E-3,5C000400,-0724,0833,12184,022.1,045.3,0.266,759.2,01.16,0.508
2016-04-01 02:19:00,1680E-3,5C000400,-0724,0833,12163,022.1,045.3,0.266,759.2,01.16,0.508
2016-04-01 02:20:00,1761E-3,5C000400,-0724,0833,12295,022.1,045.3,0.266,759.2,01.16,0.508
2016-04-01 02:21:00,1678E-3,5C000400,-0724,0833,12177,022.1,045.3,0.266,759.2,01.16,0.508
2016-04-01 02:22:00,1736E-3,5C000400,-0724,0833,12096,022.1,045.3,0.265,759.2,01.16,0.508
2016-04-01 02:23:00,1732E-3,5C000400,-0724,0834,12166,022.1,045.3,0.265,759.2,01.16,0.508
2016-04-01 02:24:00,1762E-3,5C000400,-0724,0834,12264,022.2,045.3,0.266,759.2,01.16,0.508
2016-04-01 02:25:00,1608E-3,5C000400,-0724,0833,12161,022.2,045.3,0.266,759.2,01.16,0.508
2016-04-01 02:26:00,1735E-3,5C000400,-0724,0834,12196,022.2,045.3,0.265,759.1,01.16,0.508
2016-04-01 02:27:00,1719E-3,5C000400,-0724,0833,12254,022.2,045.3,0.265,759.1,01.16,0.508
2016-04-01 02:28:00,1704E-3,5C000400,-0724,0834,12184,022.2,045.3,0.265,759.1,01.16,0.508
2016-04-01 02:29:00,1687E-3,5C000400,-0724,0834,12216,022.2,045.3,0.266,759.1,01.16,0.508
2016-04-01 02:30:00,1782E-3,5C000400,-0724,0833,12065,022.2,045.3,0.265,759.2,01.16,0.508
2016-04-01 02:31:00,1726E-3,5C000400,-0724,0834,12143,022.2,045.3,0.265,759.2,01.16,0.508
2016-04-01 02:32:00,1936E-3,5C000400,-0724,0833,12106,022.2,045.3,0.265,759.2,01.16,0.508
2016-04-01 02:33:00,1840E-3,5C000400,-0724,0833,12314,022.2,045.3,0.265,759.2,01.16,0.508
2016-04-01 02:34:00,1769E-3,5C000400,-0724,0833,12142,022.2,045.3,0.266,759.1,01.16,0.508
2016-04-01 02:35:00,1808E-3,5C000400,-0724,0833,12210,022.3,045.3,0.266,759.1,01.16,0.508
2016-04-01 02:36:00,1711E-3,5C000400,-0724,0834,12222,022.3,045.3,0.265,759.1,01.16,0.508
2016-04-01 02:37:00,1676E-3,5C000400,-0724,0835,12304,022.3,045.3,0.265,759.1,01.16,0.508
2016-04-01 02:38:00,1725E-3,5C000400,-0724,0833,12097,022.3,045.3,0.265,759.1,01.16,0.508
2016-04-01 02:39:00,1721E-3,5C000400,-0724,0834,12170,022.3,045.3,0.265,759.2,01.16,0.508
2016-04-01 02:40:00,1708E-3,5C000400,-0724,0833,11997,022.3,045.3,0.265,759.1,01.16,0.508
2016-04-01 02:41:00,1765E-3,5C000400,-0724,0833,12103,022.3,045.3,0.265,759.1,01.16,0.508
2016-04-01 02:42:00,1711E-3,5C000400,-0724,0834,12110,022.3,045.3,0.265,759.1,01.16,0.508
2016-04-01 02:43:00,1718E-3,5C000400,-0724,0834,12035,022.3,045.3,0.265,759.1,01.16,0.508
2016-04-01 02:44:00,1809E-3,5C000400,-0724,0833,12178,022.3,045.3,0.265,759.1,01.16,0.508
2016-04-01 02:45:00,1660E-3,5C000400,-0724,0833,12195,022.3,045.3,0.265,759.1,01.16,0.508
2016-04-01 02:46:00,1683E-3,5C000400,-0724,0834,12206,022.4,045.3,0.265,759.2,01.16,0.508
2016-04-01 02:47:00,1803E-3,5C000400,-0724,0834,12245,022.3,045.3,0.265,759.1,01.16,0.508
2016-04-01 02:48:00,1731E-3,5C000400,-0724,0833,12102,022.4,045.3,0.265,759.2,01.16,0.508
2016-04-01 02:49:00,1806E-3,5C000400,-0724,0833,12237,022.4,045.3,0.265,759.1,01.16,0.508
2016-04-01 02:50:00,1662E-3,5C000400,-0724,0834,12181,022.3,045.3,0.265,759.2,01.16,0.508
2016-04-01 02:51:00,1790E-3,5C000400,-0724,0834,12067,022.4,045.3,0.265,759.2,01.16,0.508
2016-04-01 02:52:00,1707E-3,5C000400,-0724,0834,12177,022.4,045.3,0.265,759.2,01.16,0.508
2016-04-01 02:53:00,1761E-3,5C000400,-0724,0832,12088,022.4,045.3,0.265,759.2,01.16,0.508
2016-04-01 02:54:00,1772E-3,5C000400,-0724,0834,12104,022.4,045.3,0.265,759.2,01.16,0.508
2016-04-01 02:55:00,1915E-3,5C000400,-0724,0834,12052,022.4,045.3,0.265,759.2,01.16,0.508
2016-04-01 02:56:00,1799E-3,5C000400,-0724,0835,12211,022.4,045.3,0.265,759.2,01.16,0.508
2016-04-01 02:57:00,1695E-3,5C000400,-0724,0835,12284,022.4,045.3,0.265,759.2,01.16,0.508
2016-04-01 02:58:00,1795E-3,5C000400,-0724,0833,12174,022.4,045.3,0.265,759.1,01.16,0.508
2016-04-01 02:59:00,1770E-3,5C000400,-0724,0833,12005,022.4,045.3,0.265,759.1,01.16,0.508
2016-04-01 03:00:00,1599E-3,5C000400,-0724,0833,11972,022.4,045.3,0.265,759.2,01.16,0.508
2016-04-01 03:01:00,1766E-3,5C000400,-0724,0834,12142,022.5,045.3,0.265,759.2,01.16,0.508
2016-04-01 03:02:00,1762E-3,5C000400,-0724,0834,12070,022.4,045.3,0.265,759.2,01.16,0.508
2016-04-01 03:03:00,1676E-3,5C000400,-0724,0834,12257,022.5,045.3,0.265,759.2,01.16,0.508
2016-04-01 03:04:00,1597E-3,5C000400,-0724,0833,12065,022.4,045.3,0.265,759.3,01.16,0.508
2016-04-01 03:05:00,1722E-3,5C000400,-0724,0834,12208,022.4,045.3,0.265,759.3,01.16,0.508
2016-04-01 03:06:00,1705E-3,5C000400,-0724,0834,12217,022.4,045.3,0.265,759.3,01.16,0.508
2016-04-01 03:07:00,1666E-3,5C000400,-0724,0834,12305,022.5,045.3,0.265,759.4,01.16,0.508
2016-04-01 03:08:00,1646E-3,5C000400,-0724,0833,12096,022.5,045.3,0.265,759.4,01.16,0.508
2016-04-01 03:09:00,1753E-3,5C000400,-0724,0833,12134,022.5,045.3,0.265,759.4,01.16,0.508
2016-04-01 03:10:00,1714E-3,5C000400,-0724,0833,12186,022.5,045.3,0.265,759.4,01.16,0.508
2016-04-01 03:11:00,1874E-3,5C000400,-0724,0833,12089,022.5,045.3,0.265,759.5,01.16,0.508
2016-04-01 03:12:00,1675E-3,5C000400,-0724,0834,12216,022.5,045.3,0.265,759.5,01.16,0.508
2016-04-01 03:13:00,1774E-3,5C000400,-0724,0833,12142,022.5,045.3,0.265,759.5,01.16,0.508
2016-04-01 03:14:00,1760E-3,5C000400,-0724,0833,12259,022.5,045.3,0.265,759.5,01.16,0.508
2016-04-01 03:15:00,1826E-3,5C000400,-0724,0833,12189,022.5,045.3,0.265,759.6,01.16,0.508
2016-04-01 03:16:00,1855E-3,5C000400,-0724,0834,12062,022.6,045.3,0.265,759.5,01.16,0.508
2016-04-01 03:17:00,1756E-3,5C000400,-0724,0834,12010,022.5,045.3,0.265,759.5,01.16,0.508
2016-04-01 03:18:00,1654E-3,5C000400,-0724,0833,12133,022.5,045.3,0.265,759.5,01.16,0.508
2016-04-01 03:19:00,1673E-3,5C000400,-0724,0834,12187,022.5,045.3,0.265,759.5,01.16,0.508
2016-04-01 03:20:00,1683E-3,5C000400,-0724,0833,12051,022.6,045.3,0.265,759.5,01.16,0.508
2016-04-01 03:21:00,1721E-3,5C000400,-0724,0833,12108,022.5,045.3,0.265,759.4,01.16,0.508
2016-04-01 03:22:00,1719E-3,5C000400,-0724,0833,12151,022.6,045.3,0.265,759.4,01.16,0.508
2016-04-01 03:23:00,1630E-3,5C000400,-0724,0833,12127,022.5,045.3,0.265,759.4,01.16,0.508
2016-04-01 03:24:00,1674E-3,5C000400,-0724,0833,12116,022.6,045.3,0.265,759.4,01.16,0.508
2016-04-01 03:25:00,1780E-3,5C000400,-0724,0833,12230,022.6,045.3,0.265,759.5,01.16,0.508
2016-04-01 03:26:00,1699E-3,5C000400,-0724,0833,12149,022.6,045.3,0.265,759.5,01.16,0.508
2016-04-01 03:27:00,1730E-3,5C000400,-0724,0833,12145,022.6,045.3,0.264,759.5,01.16,0.508
2016-04-01 03:28:00,1823E-3,5C000400,-0724,0833,12080,022.6,045.3,0.264,759.5,01.16,0.508
2016-04-01 03:29:00,1715E-3,5C000400,-0724,0834,12210,022.6,045.3,0.264,759.5,01.16,0.508
2016-04-01 03:30:00,1688E-3,5C000400,-0724,0833,11968,022.6,045.3,0.264,759.4,01.16,0.508
2016-04-01 03:31:00,1859E-3,5C000400,-0724,0834,12208,022.6,045.3,0.265,759.4,01.16,0.508
2016-04-01 03:32:00,1748E-3,5C000400,-0724,0833,12042,022.6,045.3,0.265,759.4,01.16,0.508
2016-04-01 03:33:00,1694E-3,5C000400,-0724,0834,12166,022.7,045.3,0.265,759.4,01.16,0.508
2016-04-01 03:34:00,1788E-3,5C000400,-0724,0834,12168,022.6,045.3,0.265,759.4,01.16,0.508
2016-04-01 03:35:00,1775E-3,5C000400,-0724,0834,12210,022.7,045.3,0.265,759.4,01.16,0.508
2016-04-01 03:36:00,1749E-3,5C000400,-0724,0834,12125,022.7,045.3,0.265,759.5,01.16,0.508
2016-04-01 03:37:00,1847E-3,5C000400,-0724,0834,12014,022.7,045.3,0.265,759.5,01.16,0.508
2016-04-01 03:38:00,1733E-3,5C000400,-0724,0834,12156,022.7,045.3,0.265,759.5,01.16,0.508
2016-04-01 03:39:00,1628E-3,5C000400,-0724,0833,12140,022.7,045.3,0.265,759.5,01.16,0.508
2016-04-01 03:40:00,1716E-3,5C000400,-0724,0833,12300,022.7,045.3,0.265,759.5,01.16,0.508
2016-04-01 03:41:00,1689E-3,5C000400,-0724,0834,12247,022.7,045.3,0.264,759.5,01.16,0.508
2016-04-01 03:42:00,1686E-3,5C000400,-0724,0834,12257,022.7,045.3,0.264,759.5,01.16,0.508
2016-04-01 03:43:00,1758E-3,5C000400,-0724,0833,12210,022.7,045.3,0.264,759.5,01.16,0.508
2016-04-01 03:44:00,1646E-3,5C000400,-0724,0834,12335,022.7,045.3,0.264,759.5,01.16,0.508
2016-04-01 03:45:00,1784E-3,5C000400,-0724,0833,12271,022.7,045.3,0.264,759.5,01.16,0.508
2016-04-01 03:46:00,1769E-3,5C000400,-0724,0833,12095,022.7,045.3,0.264,759.5,01.16,0.508
2016-04-01 03:47:00,1622E-3,5C000400,-0724,0833,10977,022.7,045.3,0.265,759.5,01.16,0.508
2016-04-01 03:48:00,1853E-3,5C000400,-0724,0833,12103,022.7,045.3,0.265,759.5,01.16,0.508
2016-04-01 03:49:00,1762E-3,5C000400,-0724,0833,12043,022.8,045.3,0.265,759.5,01.16,0.508
2016-04-01 03:50:00,1783E-3,5C000400,-0724,0834,12225,022.8,045.3,0.265,759.4,01.16,0.508
2016-04-01 03:51:00,1800E-3,5C000400,-0724,0834,12115,022.8,045.3,0.264,759.4,01.16,0.508
2016-04-01 03:52:00,1741E-3,5C000400,-0724,0833,12278,022.8,045.3,0.264,759.5,01.16,0.508
2016-04-01 03:53:00,1786E-3,5C000400,-0724,0834,12010,022.8,045.3,0.264,759.5,01.16,0.508
2016-04-01 03:54:00,1774E-3,5C000400,-0724,0834,12242,022.8,045.3,0.264,759.5,01.16,0.508
2016-04-01 03:55:00,1726E-3,5C000400,-0724,0833,12144,022.8,045.3,0.265,759.5,01.16,0.508
2016-04-01 03:56:00,1772E-3,5C000400,-0724,0833,12248,022.8,045.3,0.264,759.5,01.16,0.508
2016-04-01 03:57:00,1807E-3,5C000400,-0724,0834,12331,022.8,045.3,0.264,759.5,01.16,0.508
2016-04-01 03:58:00,1672E-3,5C000400,-0724,0833,12168,022.9,045.3,0.264,759.5,01.16,0.508
2016-04-01 03:59:00,1733E-3,5C000400,-0724,0834,12156,022.8,045.3,0.264,759.5,01.16,0.508
2016-04-01 04:00:00,1821E-3,5C000400,-0724,0835,12214,022.8,045.3,0.265,759.5,01.16,0.508
2016-04-01 04:01:00,1667E-3,5C000400,-0724,0835,12333,022.8,045.3,0.265,759.5,01.16,0.508
2016-04-01 04:02:00,1688E-3,5C000400,-0724,0834,12161,022.8,045.3,0.264,759.5,01.16,0.508
2016-04-01 04:03:00,1793E-3,5C000400,-0724,0833,12126,022.8,045.3,0.264,759.5,01.16,0.508
2016-04-01 04:04:00,1731E-3,5C000400,-0724,0833,12096,022.8,045.3,0.264,759.5,01.16,0.508
2016-04-01 04:05:00,1840E-3,5C000400,-0724,0834,12155,022.9,045.3,0.264,759.5,01.16,0.508
2016-04-01 04:06:00,1829E-3,5C000400,-0724,0833,12120,022.9,045.3,0.264,759.5,01.16,0.508
2016-04-01 04:07:00,1789E-3,5C000400,-0724,0833,12121,022.9,045.3,0.264,759.5,01.16,0.508
2016-04-01 04:08:00,1764E-3,5C000400,-0724,0834,12144,022.9,045.3,0.265,759.5,01.16,0.508
2016-04-01 04:09:00,1686E-3,5C000400,-0724,0834,12189,022.9,045.3,0.264,759.5,01.16,0.508
2016-04-01 04:10:00,1727E-3,5C000400,-0724,0833,12251,022.9,045.3,0.264,759.5,01.16,0.508
2016-04-01 04:11:00,1766E-3,5C000400,-0724,0833,12165,022.9,045.3,0.264,759.4,01.16,0.508
2016-04-01 04:12:00,1793E-3,5C000400,-0724,0833,12179,022.9,045.3,0.264,759.5,01.16,0.508
2016-04-01 04:13:00,1904E-3,5C000400,-0724,0833,12174,022.9,045.3,0.264,759.4,01.16,0.508
2016-04-01 04:14:00,1918E-3,5C000400,-0724,0833,12125,022.9,045.3,0.264,759.4,01.16,0.508
2016-04-01 04:15:00,1827E-3,5C000400,-0724,0834,12203,022.9,045.3,0.264,759.4,01.16,0.508
2016-04-01 04:16:00,1782E-3,5C000400,-0724,0834,12094,023.0,045.3,0.264,759.4,01.16,0.508
2016-04-01 04:17:00,1745E-3,5C000400,-0724,0834,12171,022.9,045.3,0.264,759.3,01.16,0.508
2016-04-01 04:18:00,1750E-3,5C000400,-0724,0834,12207,023.0,045.3,0.264,759.3,01.16,0.508
2016-04-01 04:19:00,1777E-3,5C000400,-0724,0833,12125,023.0,045.3,0.264,759.4,01.16,0.508
2016-04-01 04:20:00,1737E-3,5C000400,-0724,0834,12125,023.0,045.3,0.264,759.4,01.16,0.508